Regional Weather Roundup
Issued by NWS

Home | Current Version | Previous Version | Text Only | Print | Product List | Glossary Off
Versions: 1 2 3 4 5 6 7 8 9 10 11 12 13 14 15 16 17 18 19 20 21 22 23 24 25 26 27 28 29 30 31 32 33 34 35 36 37 38 39 40 41 42 43 44 45 46 47 48 49 50

000
ASUS43 KFSD 281002
RWRSD

WEATHER ROUNDUP FOR SOUTH DAKOTA
NATIONAL WEATHER SERVICE SIOUX FALLS SD
500 AM CDT TUE MAR 28 2017

NOTE: "FAIR" INDICATES FEW OR NO CLOUDS BELOW 12,000 FEET WITH NO
SIGNIFICANT WEATHER AND/OR OBSTRUCTIONS TO VISIBILITY.


SDZ001>005-009-010-012>017-281100-
NORTHWEST AND NORTH CENTRAL SOUTH DAKOTA

CITY           SKY/WX    TMP DP  RH WIND       PRES   REMARKS
BUFFALO          N/A     40  33  76 SE5       29.90F
FAITH            N/A     41  34  76 MISG      29.97R
MOBRIDGE       CLOUDY    35  28  75 CALM      30.00F
$$

SDZ012>016-024>037-041>051-057-063-072>074-281100-
SOUTHWEST AND SOUTH CENTRAL SOUTH DAKOTA

CITY           SKY/WX    TMP DP  RH WIND       PRES   REMARKS
RAPID CTY ARPT CLOUDY    40  33  76 N9        29.93F
PIERRE         CLOUDY    38  33  82 E9        29.97F
CUSTER         CLOUDY    39  33  79 NE6       29.92F
ELLSWORTH AFB  CLOUDY    42  33  70 CALM      29.93F
PHILIP         CLOUDY    40  35  83 E8        29.94S
PINE RIDGE     LGT RAIN  49  46  90 S6        29.92R
SPEARFISH      FAIR      41  36  81 CALM      29.94F
WINNER         CLOUDY    47  40  76 SE12      29.98F
$$

SDZ004>011-016>023-039-040-281100-
NORTHEAST SOUTH DAKOTA

CITY           SKY/WX    TMP DP  RH WIND       PRES   REMARKS
ABERDEEN       CLEAR     30  32 100 N6        30.07R WCI  24
WATERTOWN      CLEAR     35  34  96 CALM      30.05S
BROOKINGS      MOCLDY    38  35  89 CALM      30.05S
SISSETON         N/A     30  29  96 N5        30.06R WCI  25
$$

SDZ017-020-022-023-036>040-048>070-281100-
SOUTHEAST SOUTH DAKOTA

CITY           SKY/WX    TMP DP  RH WIND       PRES   REMARKS
SIOUX FALLS    CLEAR     33  33 100 CALM      30.06R
HURON          CLEAR     33  33 100 SE6       30.05R WCI  28
CHAMBERLAIN    CLOUDY    46  42  87 E8        30.00S
MITCHELL       CLEAR     36  35  96 SE8       30.05S
YANKTON        CLOUDY    43  37  81 CALM      30.05S
$$

ABBREVIATIONS USED IN REMARKS
   TC - TEMPERATURE IN CELSIUS
  WCI - WIND CHILL INDEX
   HX - HEAT INDEX
  VSB - VISIBILITY




USA.gov is the U.S. government's official web portal to all federal, state and local government web resources and services.